Regional Weather Roundup
Issued by NWS

Home | Current Version | Previous Version | Text Only | Print | Product List | Glossary Off
Versions: 1 2 3 4 5 6 7 8 9 10 11 12 13 14 15 16 17 18 19 20 21 22 23 24 25 26 27 28 29 30 31 32 33 34 35 36 37 38 39 40 41 42 43 44 45 46 47 48 49 50

000
ASUS43 KLSX 200007
RWRMO

WEATHER SUMMARY FOR MISSOURI
NATIONAL WEATHER SERVICE SPRINGFIELD MO
600 PM CST FRI DEC 19 2014

NOTE: "FAIR" INDICATES FEW OR NO CLOUDS BELOW 12,000 FEET WITH NO
       SIGNIFICANT WEATHER AND/OR OBSTRUCTIONS TO VISIBILITY.
       CURRENT SKY AND/OR WEATHER CONDITIONS ARE NOT AVAILABLE FOR
       CHILLICOTHE AND FARMINGTON.

MOZ001>031-035>038-043-044-053-054-200100-
...NORTHERN AND WESTERN MISSOURI...

CITY           SKY/WX    TMP DP  RH WIND       PRES   REMARKS
KANSAS CTY INT CLOUDY    32  30  92 CALM      30.20S
6HR MIN TEMP:  31; 6HR MAX TEMP:  32; 6HR PCP: TRACE;

KANSAS C DTWN  CLOUDY    35  31  85 CALM      30.21S
6HR MIN TEMP:  33; 6HR MAX TEMP:  35;

LEE`S SUMMIT   CLOUDY    34  31  88 CALM      30.21R
6HR MIN TEMP:  32; 6HR MAX TEMP:  35;

ST JOSEPH      CLOUDY    32  29  88 S7        30.21F WCI  26
6HR MIN TEMP:  31; 6HR MAX TEMP:  32;

CHILLICOTHE      N/A     34  31  88 CALM      30.23S
6HR MIN TEMP:  33; 6HR MAX TEMP:  35;

KIRKSVILLE     CLOUDY    32  30  92 SE6       30.23S FOG     WCI  26
6HR MIN TEMP:  31; 6HR MAX TEMP:  33;


$$
MOZ066>068-077>081-088>096-101>105-200100-
...SOUTHWEST MISSOURI...

CITY           SKY/WX    TMP DP  RH WIND       PRES   REMARKS
SPRINGFIELD    CLOUDY    39  36  89 S6        30.18S
6HR MIN TEMP:  38; 6HR MAX TEMP:  40; 6HR PCP: TRACE;

JOPLIN         CLOUDY    39  38  96 CALM      30.20S FOG
6HR MIN TEMP:  37; 6HR MAX TEMP:  39;


$$
MOZ032>034-039>042-045>050-055>058-069>072-200100-
...CENTRAL MISSOURI...

CITY           SKY/WX    TMP DP  RH WIND       PRES   REMARKS
COLUMBIA       CLOUDY    35  32  88 E6        30.23S
6HR MIN TEMP:  35; 6HR MAX TEMP:  37;

JEFFERSON CITY CLOUDY    37  32  82 E6        30.24S
6HR MIN TEMP:  37; 6HR MAX TEMP:  38;

ROLLA          CLOUDY    35  31  85 E5        30.20S
6HR MIN TEMP:  34; 6HR MAX TEMP:  35;

SEDALIA        CLOUDY    37  34  89 SE5       30.22R
6HR MIN TEMP:  36; 6HR MAX TEMP:  37;

WHITEMAN AFB   CLOUDY    36  34  92 SE3       30.21R
WARRENSBURG    CLOUDY    34  32  93 CALM      30.22R FOG
OSAGE BEACH    CLOUDY    37  32  81 CALM      30.22S

$$
MOZ051-052-059>065-200100-
...EAST CENTRAL MISSOURI...

CITY           SKY/WX    TMP DP  RH WIND       PRES   REMARKS
ST LOUIS INTL  NOT AVBL
SPIRIT OF STL  CLOUDY    36  30  79 CALM      30.26S HAZE
6HR MIN TEMP:  35; 6HR MAX TEMP:  37;

ST CHARLES     CLOUDY    35  29  78 E6        30.27S
6HR MIN TEMP:  35; 6HR MAX TEMP:  37;


$$
MOZ072>076-082>087-097>100-106>115-200100-
...SOUTH CENTRAL AND SOUTHEAST MISSOURI...

CITY           SKY/WX    TMP DP  RH WIND       PRES   REMARKS
CAPE GIRARDEAU CLOUDY    38  32  79 N6        30.25F
6HR MIN TEMP:  37; 6HR MAX TEMP:  39;

FARMINGTON     CLOUDY    36  32  87 N7        30.25S WCI  30
6HR MIN TEMP:  34; 6HR MAX TEMP:  36;

POPLAR BLUFF   CLOUDY    38  30  73 NE8       30.23S
6HR MIN TEMP:  38; 6HR MAX TEMP:  40;

WEST PLAINS    CLOUDY    36  33  89 CALM      30.22R
6HR MIN TEMP:  34; 6HR MAX TEMP:  36;


$$



USA.gov is the U.S. government's official web portal to all federal, state and local government web resources and services.